Regional Weather Roundup
Issued by NWS

Home | Current Version | Previous Version | Graphics & Text | Print | Product List | Glossary On
Versions: 1 2 3 4 5 6 7 8 9 10 11 12 13 14 15 16 17 18 19 20 21 22 23 24 25 26 27 28 29 30 31 32 33 34 35 36 37 38 39 40 41 42 43 44 45 46 47 48 49 50
000
ASUS43 KFSD 300310
RWRSD

WEATHER ROUNDUP FOR SOUTH DAKOTA
NATIONAL WEATHER SERVICE SIOUX FALLS SD
1000 PM CDT WED JUL 29 2015

NOTE: "FAIR" INDICATES FEW OR NO CLOUDS BELOW 12,000 FEET WITH NO
SIGNIFICANT WEATHER AND/OR OBSTRUCTIONS TO VISIBILITY.


SDZ001>005-009-010-012>017-300400-
NORTHWEST AND NORTH CENTRAL SOUTH DAKOTA

CITY           SKY/WX    TMP DP  RH WIND       PRES   REMARKS
BUFFALO          N/A     71  39  31 NW13      30.10R
FAITH            N/A     68  43  40 N8        30.14R
MOBRIDGE       CLEAR     63  57  81 CALM      30.06R
$$

SDZ012>016-024>037-041>051-057-063-072>074-300400-
SOUTHWEST AND SOUTH CENTRAL SOUTH DAKOTA

CITY           SKY/WX    TMP DP  RH WIND       PRES   REMARKS
RAPID CTY ARPT CLEAR     62  51  67 NE8       30.18R
PIERRE         CLEAR     75  42  30 SW7       30.08R
CUSTER         CLEAR     62  37  39 CALM      30.32R
ELLSWORTH AFB  CLEAR     75  42  29 NE8       30.18R
PHILIP         CLEAR     70  53  54 CALM      30.13R
PINE RIDGE     CLEAR     66  53  63 E6        30.19R
SPEARFISH      FAIR      63  45  51 S12       30.24R
WINNER         FAIR      78  48  34 CALM      30.13S
$$

SDZ004>011-016>023-039-040-300400-
NORTHEAST SOUTH DAKOTA

CITY           SKY/WX    TMP DP  RH WIND       PRES   REMARKS
ABERDEEN       CLEAR     63  55  75 SW5       30.05R
WATERTOWN      CLEAR     64  54  69 W7        30.07R
BROOKINGS      CLEAR     70  55  60 W6        30.10R
SISSETON         N/A     67  56  67 W7        30.02R
$$

SDZ017-020-022-023-036>040-048>070-300400-
SOUTHEAST SOUTH DAKOTA

CITY           SKY/WX    TMP DP  RH WIND       PRES   REMARKS
SIOUX FALLS    CLEAR     70  60  70 CALM      30.09R
HURON          CLEAR     69  59  70 CALM      30.07R
CHAMBERLAIN    CLEAR     69  55  61 CALM      30.10S
MITCHELL       CLEAR     69  56  62 N5        30.08S
YANKTON        CLEAR     73  57  56 SW8       30.09R
$$

ABBREVIATIONS USED IN REMARKS
   TC - TEMPERATURE IN CELSIUS
  WCI - WIND CHILL INDEX
   HX - HEAT INDEX
  VSB - VISIBILITY




USA.gov is the U.S. government's official web portal to all federal, state and local government web resources and services.